Grand Marais, MN

2:32 AM CST on November 15, 2019 (GMT -0600)
Grand Marais

Weather History for KGNA - September, 2019

Change the Weather History Date:

Thursday, September 5, 2019

  Actual Average (WUND) Record (WUND)
Temperature  
Mean Temperature 50 °F -  
Max Temperature 59 °F - - (-1)
Min Temperature 45 °F - - (-1)
Degree Days  
Heating Degree Days 15    
Moisture  
Dew Point 48 °F    
Average Humidity 94    
Maximum Humidity 100    
Minimum Humidity 83    
Precipitation  
Precipitation 0.07 in - - ()
Sea Level Pressure  
Sea Level Pressure 30.03 in    
Wind  
Wind Speed 2 mph (NE)    
Max Wind Speed 9 mph    
Max Gust Speed -    
Averages and records for this station are not official NWS values.
T = Trace of Precipitation, MM = Missing Value Source: NWS Daily Summary

Daily Weather History Graph

Daily Weather History Graph

Search for Another Location

Airport or City:

Astronomy

Sep. 05, 2019 Rise Set
Actual Time 6:24 AM CDT 7:34 PM CDT
Civil Twilight 5:53 AM CDT 8:06 PM CDT
Nautical Twilight 5:14 AM CDT 8:44 PM CDT
Astronomical Twilight 4:34 AM CDT 9:24 PM CDT
Moon 2:02 PM CDT (9/5) 11:18 PM CDT (9/5)
Length of Visible Light 14h 12m
Length of Day
13h 09m
Waxing Crescent, 45% of the Moon is Illuminated
Sep 5
Waxing Crescent
Sep 5
First Quarter
Sep 13
Full
Sep 21
Last Quarter
Sep 28
New

Hourly Weather History & Observations

Time (CDT) Temp. Dew Point Humidity Pressure Visibility Wind Dir Wind Speed Gust Speed Precip Events Conditions
12:56 AM 46.0 °F 45.0 °F 96% 30.09 in - Calm Calm - N/A   Unknown
1:56 AM 45.0 °F 44.1 °F 97% 30.10 in - Calm Calm - N/A   Unknown
2:56 AM 46.9 °F 46.0 °F 97% 30.10 in - Calm Calm - N/A   Unknown
3:56 AM 46.0 °F 44.1 °F 93% 30.09 in - Calm Calm - N/A   Unknown
4:56 AM 45.0 °F 44.1 °F 97% 30.09 in - Calm Calm - N/A   Unknown
5:56 AM 45.0 °F 44.1 °F 97% 30.09 in - Calm Calm - N/A   Unknown
6:56 AM 46.0 °F 45.0 °F 96% 30.10 in - Calm Calm - N/A   Unknown
7:56 AM 46.9 °F 46.9 °F 100% 30.09 in - Calm Calm - N/A   Unknown
8:56 AM 48.0 °F 46.0 °F 93% 30.06 in - Calm Calm - N/A   Unknown
9:56 AM 48.0 °F 46.9 °F 96% 30.06 in - Calm Calm - N/A   Unknown
10:56 AM 51.1 °F 48.0 °F 89% 30.06 in - Calm Calm - N/A   Unknown
11:56 AM 53.1 °F 48.0 °F 83% 30.03 in - ENE 4.6 mph - N/A   Unknown
12:56 PM 54.0 °F 48.9 °F 83% 30.02 in - NE 5.8 mph - N/A   Unknown
1:56 PM 54.0 °F 50.0 °F 86% 30.02 in - ENE 3.5 mph - N/A   Unknown
2:56 PM 51.1 °F 48.0 °F 89% 30.02 in - Variable 3.5 mph - N/A   Unknown
3:56 PM 52.0 °F 50.0 °F 93% 29.99 in - NE 9.2 mph - 0.03 in   Unknown
4:56 PM 50.0 °F 48.9 °F 96% 29.98 in - ENE 8.1 mph - N/A   Unknown
5:56 PM 50.0 °F 50.0 °F 100% 29.99 in - ENE 4.6 mph - N/A   Unknown
6:56 PM 50.0 °F 48.9 °F 96% 29.98 in - ENE 3.5 mph - N/A   Unknown
7:56 PM 50.0 °F 48.9 °F 96% 29.97 in - NE 4.6 mph - N/A   Unknown
8:56 PM 52.0 °F 51.1 °F 97% 29.96 in - Variable 3.5 mph - N/A   Unknown
9:56 PM 54.0 °F 53.1 °F 97% 29.96 in - ENE 4.6 mph - N/A   Unknown
10:56 PM 55.9 °F 55.0 °F 97% 29.95 in - NE 6.9 mph - 0.04 in   Unknown
11:56 PM 51.1 °F 50.0 °F 96% 29.94 in - NE 3.5 mph - N/A   Unknown